Dania, FL

5:37 AM EST on February 26, 2017 (GMT -0500)
Fort Lauderdale-Hollywood International

Weather History for KFLL - November, 2014

Change the Weather History Date:

Saturday, November 29, 2014

  Actual Average Record
Temperature  
Mean Temperature 66 °F 74 °F  
Max Temperature 77 °F 80 °F 90 °F (1958)
Min Temperature 55 °F 67 °F 35 °F (1950)
Degree Days  
Heating Degree Days 0 0  
Month to date heating degree days 10 0  
Since 1 July heating degree days 10 0  
Cooling Degree Days 1 9  
Month to date cooling degree days 244 310  
Year to date cooling degree days 4591 4504  
Growing Degree Days 15 (Base 50)    
Moisture  
Dew Point 53 °F    
Average Humidity 68    
Maximum Humidity 86    
Minimum Humidity 49    
Precipitation  
Precipitation 0.00 in 0.11 in 1.16 in (1995)
Month to date precipitation 2.92 3.14  
Year to date precipitation 59.36 59.62  
Snow  
Snow 0.00 in - - ()
Month to date snowfall 0.0  
Since 1 July snowfall 0.0  
Since 1 September snowfall 0.0  
Snow Depth 0.00 in    
Sea Level Pressure  
Sea Level Pressure 30.21 in    
Wind  
Wind Speed 11 mph (NNE)    
Max Wind Speed 18 mph    
Max Gust Speed 24 mph    
Visibility 10 miles    
Events      
T = Trace of Precipitation, MM = Missing Value Source: NWS Daily Summary

Daily Weather History Graph

Daily Weather History Graph

Search for Another Location

Airport or City:

Trip Planner

Search our weather history database for the weather conditions in past years. The results will help you decide how hot, cold, wet, or windy it might be!

Date:

Astronomy

Nov. 29, 2014 Rise Set
Actual Time 6:49 AM EST 5:28 PM EST
Civil Twilight 6:24 AM EST 5:53 PM EST
Nautical Twilight 5:56 AM EST 6:21 PM EST
Astronomical Twilight 5:28 AM EST 6:49 PM EST
Moon 12:43 PM EST (11/29) No Moon Set
Length of Visible Light 11h 28m
Length of Day
10h 39m
First Quarter, 53% of the Moon is Illuminated
Nov 29
First Quarter
Dec 6
Full
Dec 14
Last Quarter
Dec 21
New
Dec 28
First Quarter

Hourly Weather History & Observations

Time (EST) Temp. Dew Point Humidity Pressure Visibility Wind Dir Wind Speed Gust Speed Precip Events Conditions
12:53 AM 55.9 °F 50.0 °F 80% 30.18 in 10.0 mi NNW 10.4 mph - N/A   Partly Cloudy
1:53 AM 55.9 °F 50.0 °F 80% 30.17 in 10.0 mi NW 6.9 mph - N/A   Scattered Clouds
2:53 AM 57.9 °F 51.1 °F 78% 30.17 in 10.0 mi NNW 10.4 mph - N/A   Mostly Cloudy
3:53 AM 55.9 °F 50.0 °F 80% 30.17 in 10.0 mi NNW 9.2 mph - N/A   Partly Cloudy
4:53 AM 55.0 °F 50.0 °F 83% 30.17 in 10.0 mi NW 5.8 mph - N/A   Partly Cloudy
5:53 AM 55.0 °F 51.1 °F 86% 30.18 in 10.0 mi NNW 8.1 mph - N/A   Partly Cloudy
6:53 AM 55.9 °F 51.1 °F 84% 30.21 in 10.0 mi NNW 6.9 mph - N/A   Partly Cloudy
7:53 AM 57.9 °F 52.0 °F 81% 30.22 in 10.0 mi NNW 10.4 mph - N/A   Scattered Clouds
8:53 AM 62.1 °F 54.0 °F 75% 30.24 in 10.0 mi North 5.8 mph - N/A   Mostly Cloudy
9:53 AM 69.1 °F 55.9 °F 63% 30.25 in 10.0 mi North 4.6 mph - N/A   Mostly Cloudy
10:53 AM 73.9 °F 55.0 °F 52% 30.25 in 10.0 mi NE 9.2 mph - N/A   Partly Cloudy
11:53 AM 75.0 °F 55.9 °F 51% 30.23 in 10.0 mi ENE 13.8 mph - N/A   Mostly Cloudy
12:53 PM 75.0 °F 55.0 °F 50% 30.20 in 10.0 mi NE 13.8 mph - N/A   Mostly Cloudy
1:53 PM 73.9 °F 53.1 °F 48% 30.19 in 10.0 mi ENE 15.0 mph 23.0 mph N/A   Mostly Cloudy
2:53 PM 73.9 °F 53.1 °F 48% 30.18 in 10.0 mi ENE 13.8 mph - N/A   Partly Cloudy
3:53 PM 73.9 °F 53.1 °F 48% 30.19 in 10.0 mi NE 10.4 mph - N/A   Mostly Cloudy
4:53 PM 73.0 °F 53.1 °F 49% 30.20 in 10.0 mi ENE 13.8 mph 19.6 mph N/A   Mostly Cloudy
5:53 PM 71.1 °F 54.0 °F 55% 30.20 in 10.0 mi ENE 12.7 mph - N/A   Scattered Clouds
6:53 PM 71.1 °F 55.0 °F 57% 30.21 in 10.0 mi ENE 11.5 mph - N/A   Partly Cloudy
7:53 PM 71.1 °F 53.1 °F 53% 30.22 in 10.0 mi ENE 13.8 mph 21.9 mph N/A   Partly Cloudy
8:53 PM 71.1 °F 51.1 °F 49% 30.22 in 10.0 mi East 12.7 mph - N/A   Partly Cloudy
9:53 PM 71.1 °F 55.0 °F 57% 30.22 in 10.0 mi East 13.8 mph - N/A   Scattered Clouds
10:53 PM 71.1 °F 55.0 °F 57% 30.23 in 10.0 mi East 13.8 mph - N/A   Partly Cloudy
11:53 PM 71.1 °F 54.0 °F 55% 30.22 in 10.0 mi East 13.8 mph - N/A   Partly Cloudy